Location: Poughquag
(41.6090°N, 73.6820°W)
Time: 12:48:53
(UTC-04:00)

A-11 Canister half - Pass Details

Date: 31 May 2020
Orbit: 1527 x 1682 km, 47.3° (Epoch: 06 July)

Event Time Altitude Azimuth Distance (km) Brightness Sun altitude
Rises 08:26:30 0° 241° (WSW) 4,669 11.1 31.7°
Reaches altitude 10° 08:29:30 10° 241° (WSW) 3,688 10.6 32.3°
Maximum altitude 08:38:50 89° 157° (SSE) 1,542 9.7 34.0°
Drops below altitude 10° 08:48:21 10° 65° (ENE) 3,762 12.1 35.8°
Sets 08:51:28 0° 66° (ENE) 4,767 12.4 36.4°
